[Iaude] MPEC A62: 2024 AG1 [a=1.74,e=0.53,i=4.9,H=22.8]

mpec at marsden.cfa.harvard.edu mpec at marsden.cfa.harvard.edu
Sat Jan 6 23:34:53 EST 2024


M.P.E.C. 2024-A62                               Issued 2024 January 7, 04:33 UT

     The Minor Planet Electronic Circulars contain information on unusual
         minor planets, routine data on comets and natural satellites,
         and occasional editorial announcements.  They are published
    on behalf of Division F of the International Astronomical Union by the
          Minor Planet Center, Smithsonian Astrophysical Observatory,
                          Cambridge, MA 02138, U.S.A.
			  
             Prepared using the Tamkin Foundation Computer Network

                              MPC at CFA.HARVARD.EDU
            URL https://www.minorplanetcenter.net/    ISSN 1523-6714

                                    2024 AG1                                    


Observations:
     K24A01G  C2024 01 02.23497102 36 11.613-31 24 32.67         20.50GVEA062F52
     K24A01G  C2024 01 02.25575502 36 35.344-31 22 24.28         20.35GVEA062F52
     K24A01G  C2024 01 02.26619602 36 47.211-31 21 19.40         20.15GVEA062F52
     K24A01G* C2024 01 06.22868903 44 06.684-23 53 19.62         20.45wXEA062F52
     K24A01G  C2024 01 06.23778903 44 14.246-23 52 17.34         20.51wXEA062F52
     K24A01G  C2024 01 06.24686503 44 21.764-23 51 14.73         20.25wXEA062F52
     K24A01G KC2024 01 06.40461103 46 34.200-23 31 48.07         20.2 GVEA062474
     K24A01G KC2024 01 06.40584003 46 35.215-23 31 39.83         20.2 GVEA062474
     K24A01G KC2024 01 06.40830103 46 37.241-23 31 22.80         20.3 GVEA062474
     K24A01G KC2024 01 06.40952903 46 38.230-23 31 14.34         20.4 GVEA062474
     K24A01G KC2024 01 06.49841903 47 51.113-23 20 56.47         20.3 GVEA062474
     K24A01G KC2024 01 06.49964703 47 52.145-23 20 48.05         20.1 GVEA062474
     K24A01G KC2024 01 06.50087403 47 53.117-23 20 39.41         20.3 GVEA062474
     K24A01G KC2024 01 06.50210203 47 54.137-23 20 30.70         20.1 GVEA062474

Observer details:
474 Mount John Observatory, Lake Tekapo.  Observers A. C. Gilmore, P. M.
    Kilmartin.  Measurer P. M. Kilmartin.  1.0-m f/7.7 Reflector + CCD.
F52 Pan-STARRS 2, Haleakala.  Observers J. Herman, T. Lowe, P. Minguez, A.
    Schultz, I. Smith.  Measurers K. Chambers, T. de Boer, J. Fairlamb, H.
    Gao, M. Huber, C.-C. Lin, E. Magnier, Y. Ramanjooloo, R. Wainscoat, R.
    Weryk.  1.8-m Ritchey-Chretien + CCD.

Orbital elements:
2024 AG1                                                 Earth MOID = 0.0694 AU
Epoch 2023 Sept. 13.0 TT = JDT 2460200.5                Bell                    
M 330.91063              (2000.0)            P               Q                  
n   0.43046741     Peri.  177.66321     +0.82100327     -0.56855261             
a   1.7371708      Node   217.14227     +0.52240600     +0.78484035             
e   0.5267967      Incl.    4.93829     +0.23031629     +0.24652293             
P   2.29           H   22.84          G   0.15           U   9                  
Residuals in seconds of arc
240102 F52  0.2+  0.1+    240106 F52  0.0   0.2+    240106 474  0.2-  0.0
240102 F52  0.2+  0.0     240106 474  0.1+  0.1+    240106 474  0.2+  0.2-
240102 F52  0.3-  0.0     240106 474  0.2+  0.1-    240106 474  0.3-  0.1-
240106 F52  0.1-  0.0     240106 474  0.2+  0.1-    240106 474  0.1-  0.1+
240106 F52  0.1+  0.1-    240106 474  0.1-  0.2-

Ephemeris:
2024 AG1                 a,e,i = 1.74, 0.53, 5                   q = 0.8220
Date    TT    R. A. (2000) Decl.     Delta      r    Elong.  Phase     V
2023 12 08    20 39 06.6 -27 17 52   0.2240  0.8598    50.4   118.1    24.0
...
2023 12 23    23 03 20.8 -36 54 42   0.1257  0.9371    64.8   108.2    22.3
...
2023 12 31    01 49 31.0 -34 47 17   0.1061  0.9899    90.5    83.4    20.9
...
2024 01 06    03 40 45.3 -24 19 02   0.1178  1.0330   111.9    62.1    20.5
2024 01 07    03 54 44.0 -22 24 13   0.1218  1.0404   114.9    59.0    20.5
2024 01 08    04 07 29.4 -20 32 17   0.1262  1.0479   117.6    56.2    20.5
...
2024 01 14    05 03 51.9 -11 02 12   0.1608  1.0937   129.9    43.6    20.7
...
2024 01 22    05 46 59.5 -02 45 53   0.2211  1.1568   137.5    35.1    21.3
...
2024 02 06    06 30 44.8 +05 27 20   0.3602  1.2778   138.4    30.8    22.5

M. P. C. Staff               (C) Copyright 2024 MPC           M.P.E.C. 2024-A62





More information about the Iaude mailing list